This demonstration page uses our WeatherBlox Daily Observations layout. Learn more.

Left ArrowRight Arrow

41.86663, -103.66717

Hourly Observations for January 14, 2017

Temp ( °F °C ) Dew Point ( °F °C ) Humidity (%) Winds ( mph kmh ) Pressure ( in mb ) Visibility ( mi km ) Precip ( " mm )
12:53 am 00:53 Mostly Clear 23 -5 18 -7.8 81 81 ENE 3 6 30.47 1032 8 13 0.00 0.00
1:53 am 01:53 Cloudy 20 -6.7 17 -8.3 89 89 Calm 30.47 1032 7 11 0.00 0.00
2:53 am 02:53 Cloudy 20 -6.7 17 -8.3 89 89 Calm 30.47 1032 8 13 0.00 0.00
3:53 am 03:53 Mostly Clear 18 -7.8 15 -9.4 88 88 NNW 3 6 30.47 1032 7 11 0.00 0.00
4:53 am 04:53 Mostly Clear 17 -8.3 13 -10.6 84 84 NNW 6 9 30.50 1033 7 11 0.00 0.00
5:53 am 05:53 Mostly Clear 16 -8.9 12 -11.1 84 84 Calm 30.51 1033 8 13 0.00 0.00
6:53 am 06:53 Partly Cloudy 16 -8.9 12 -11.1 84 84 N 3 6 30.52 1033 8 13 0.00 0.00
7:53 am 07:53 Sunny 15 -9.4 11 -11.7 84 84 N 3 6 30.53 1034 7 11 0.00 0.00
8:53 am 08:53 Sunny 23 -5 18 -7.8 81 81 Calm 30.53 1034 7 11 0.00 0.00
9:53 am 09:53 Sunny 29 -1.7 21 -6.1 72 72 Calm 30.50 1033 7 11 0.00 0.00
10:53 am 10:53 Sunny 31 -0.6 22 -5.6 69 69 SSE 3 6 30.48 1032 9 14 0.00 0.00
11:53 am 11:53 Sunny 35 1.7 23 -5 61 61 E 3 6 30.43 1030 9 14 0.00 0.00
12:53 pm 12:53 Sunny 38 3.3 24 -4.4 57 57 undefined N/A 30.38 1029 10 16 0.00 0.00
1:53 pm 13:53 Sunny 40 4.4 24 -4.4 53 53 ESE 6 9 30.37 1028 10 16 0.00 0.00
2:53 pm 14:53 Sunny 41 5 24 -4.4 51 51 ESE 6 9 30.35 1028 10 16 0.00 0.00
3:53 pm 15:53 Sunny 38 3.3 26 -3.3 62 62 ESE 7 11 30.36 1028 10 16 0.00 0.00
4:53 pm 16:53 Clear 31 -0.6 24 -4.4 76 76 E 6 9 30.39 1029 10 16 0.00 0.00
5:53 pm 17:53 Clear 29 -1.7 23 -5 78 78 E 6 9 30.40 1029 10 16 0.00 0.00
6:53 pm 18:53 Clear 30 -1.1 23 -5 75 75 E 9 15 30.40 1030 10 16 0.00 0.00
7:53 pm 19:53 Clear 28 -2.2 22 -5.6 78 78 E 9 15 30.40 1029 10 16 0.00 0.00
8:53 pm 20:53 Clear 27 -2.8 21 -6.1 78 78 E 9 15 30.37 1029 10 16 0.00 0.00
9:53 pm 21:53 Clear 27 -2.8 19 -7.2 72 72 Calm 30.35 1028 10 16 0.00 0.00
10:53 pm 22:53 Clear 24 -4.4 18 -7.8 77 77 Calm 30.34 1027 10 16 0.00 0.00
11:53 pm 23:53 Clear 20 -6.7 16 -8.9 85 85 Calm 30.33 1027 10 16 0.00 0.00

Powered by AerisWeather